Theta_e
304 303 301 300 302 304 305 306 305 304 304 306 307 308 307 308 311 311 315 317 321 326 327 328 326 329 330 329 329 327 328 325 324 323 324 323 320 324 321 322 324 326 325 323
301 302 300 301 302 302 303 304 304 304 304 305 306 307 307 308 309 310 310 314 316 318 325 326 326 326 329 330 329 328 328 326 322 323 325 323 321 323 324 324 326 326 325 322
303 299 301 302 302 304 303 302 301 302 303 305 305 306 305 306 308 308 309 310 312 315 317 324 325 325 327 329 329 328 327 326 324 325 324 323 320 324 324 325 325 325 323 314
300 301 303 301 302 301 302 301 301 302 303 305 304 305 305 304 307 309 309 309 311 314 316 320 324 325 326 327 329 329 327 326 325 325 324 323 321 323 324 325 324 323 315 309
300 300 301 302 302 301 302 302 302 303 305 306 305 307 305 305 308 309 310 311 312 314 315 318 322 324 325 326 328 328 327 326 325 325 323 323 323 322 325 323 321 318 317 306
301 302 302 301 301 301 301 302 303 304 302 305 303 305 306 305 305 308 308 310 312 314 315 317 319 322 324 325 326 327 326 325 323 322 322 325 324 324 325 321 316 309 307 303
300 300 299 301 302 302 303 302 299 295 303 304 306 305 307 307 306 306 307 309 313 314 315 317 319 321 322 324 324 326 325 323 323 322 324 324 323 324 324 320 314 311 305 298
299 297 300 302 304 302 301 300 300 299 304 304 304 303 305 306 307 310 310 310 312 314 315 316 319 320 320 322 324 324 324 324 325 323 324 323 322 324 322 317 309 306 299 296
298 299 299 299 299 300 303 304 303 306 304 306 301 303 307 308 308 307 309 309 312 314 314 317 317 318 318 315 323 324 324 324 323 324 324 323 323 318 312 308 303 303 297 294
298 300 299 299 300 301 303 303 305 298 306 305 302 303 310 309 308 306 306 306 312 314 313 314 314 316 316 314 312 321 324 324 322 322 323 321 315 311 308 302 298 295 295 298
298 300 299 299 300 298 301 304 303 303 303 308 308 308 310 307 305 304 303 304 308 313 312 313 312 311 311 313 313 314 319 321 318 320 317 312 310 307 305 300 298 301 300 302
299 300 298 299 298 297 302 302 304 306 303 305 306 307 308 307 306 303 300 305 310 310 310 310 310 307 307 309 310 310 314 314 313 315 313 309 308 305 303 300 299 298 303 304
297 296 294 295 296 301 303 301 302 304 306 305 308 307 306 307 307 305 300 301 305 305 304 304 305 304 304 305 307 309 307 313 311 311 309 307 303 303 302 303 303 302 297 295
299 297 295 296 298 298 300 299 298 301 304 304 304 304 304 304 307 303 301 300 301 302 301 301 302 303 303 303 305 305 305 305 309 307 305 305 305 305 305 304 302 301 300 295
297 294 292 295 296 297 298 298 299 301 302 304 303 304 303 306 307 307 304 300 300 300 300 299 300 300 301 301 304 305 305 303 306 307 307 306 306 306 304 303 302 296 293 292
293 289 291 294 293 296 298 298 298 301 302 303 303 305 304 303 305 307 307 302 300 300 299 298 299 299 300 300 303 303 301 302 306 307 307 307 306 304 304 302 294 293 293 292
295 294 288 289 291 291 289 296 299 300 301 302 303 303 301 301 304 307 307 301 303 299 298 298 298 299 300 301 303 303 303 304 307 308 307 305 302 301 297 294 293 293 292 292
295 294 290 289 287 290 297 295 295 297 298 299 297 295 298 300 301 307 304 300 302 301 299 299 299 299 300 300 303 304 304 306 307 307 305 304 301 296 294 293 293 292 292 292
294 294 290 286 281 290 296 300 300 300 301 299 294 294 298 299 301 307 306 300 300 302 302 301 302 301 301 302 304 305 306 307 307 307 305 298 295 294 293 293 292 292 292 292
294 294 293 281 289 289 294 300 297 297 299 299 294 294 297 299 306 302 302 300 301 300 302 305 305 305 304 305 306 307 306 307 308 306 300 294 294 293 293 293 292 292 292 292
287 293 292 287 291 290 292 294 298 299 303 299 296 294 297 298 298 298 299 301 301 300 300 302 306 307 307 307 306 306 308 308 306 300 295 294 294 294 293 292 292 292 292 292
285 287 286 289 290 293 295 297 299 299 299 298 298 297 295 296 300 299 299 300 301 300 300 299 300 302 305 305 306 305 305 305 302 296 294 294 294 293 292 292 293 293 294 293
285 289 289 291 295 295 296 297 299 297 296 296 296 294 298 296 299 300 299 299 300 300 300 299 299 300 300 301 303 305 306 305 302 295 294 293 293 293 293 293 294 294 294 293
285 287 289 291 291 291 293 293 293 292 293 293 293 293 296 296 298 300 300 299 300 300 300 299 299 299 300 299 299 300 304 301 297 295 294 293 295 294 293 294 295 294 294 293
288 287 287 287 289 291 293 292 292 292 293 294 294 295 297 296 298 300 299 298 299 299 299 299 300 299 299 299 299 298 297 297 296 295 294 294 296 294 294 294 295 295 294 292
287 287 288 289 291 291 292 293 292 293 293 294 295 296 296 296 298 300 298 299 300 300 300 300 299 299 299 299 299 298 297 296 296 295 294 295 296 294 295 295 295 294 293 292
Wind_Speed
4 2 6 7 7 8 9 13 17 14 14 17 22 28 21 23 20 25 22 28 28 31 40 42 50 51 53 54 52 51 51 46 43 42 41 37 36 35 31 30 26 25 25 23
4 6 4 3 6 8 8 11 19 17 12 12 19 28 20 16 22 30 32 28 31 33 27 39 50 51 53 56 56 53 54 49 46 44 44 40 37 36 33 30 27 26 25 23
3 5 9 4 8 6 6 8 17 18 16 15 20 27 23 20 30 35 41 41 39 38 35 37 47 52 55 57 60 60 56 50 47 47 46 41 38 36 35 33 30 27 25 22
6 4 3 6 8 5 11 12 15 13 10 11 6 19 22 19 21 20 34 40 37 40 36 39 48 52 59 60 59 62 54 55 51 50 49 43 42 42 38 36 33 31 27 22
7 7 6 8 8 5 11 2 10 15 16 13 18 9 14 8 13 21 18 32 38 44 42 40 47 53 58 61 63 65 58 56 52 50 46 45 41 42 40 39 35 32 29 24
9 6 4 6 6 7 13 10 15 15 7 9 27 12 15 15 18 19 20 31 39 40 38 41 42 49 56 61 64 65 64 54 51 48 50 48 46 45 43 40 37 34 31 27
5 4 4 4 5 2 2 7 5 5 2 7 2 3 9 16 12 17 21 27 29 35 34 37 41 45 53 59 64 64 57 52 55 53 52 49 46 43 44 42 39 36 30 25
4 9 2 3 2 7 11 6 2 5 6 17 14 7 9 6 10 17 20 34 27 31 36 37 38 43 37 52 64 60 57 59 57 56 54 49 45 47 45 44 39 31 28 25
4 7 4 9 11 3 3 4 6 7 12 11 4 8 7 9 17 20 22 30 23 28 33 34 33 38 41 38 63 63 61 60 59 56 53 48 48 45 42 38 33 28 25 21
4 9 5 5 4 8 6 4 5 4 5 8 6 6 3 14 22 25 22 17 20 28 24 28 31 33 43 42 37 58 59 58 56 58 54 50 44 37 36 34 34 29 26 23
2 6 7 7 2 3 4 4 3 4 3 5 8 6 2 9 14 21 24 25 25 24 26 31 25 26 34 41 43 49 56 57 56 52 47 39 35 35 36 35 32 27 22 18
1 4 5 10 15 7 5 5 3 4 6 8 11 8 4 4 12 15 18 25 13 24 23 23 24 26 30 37 41 38 45 44 42 40 37 36 36 38 39 34 29 24 19 18
2 3 5 10 5 2 2 5 11 13 5 9 9 7 15 14 18 22 17 17 3 15 19 21 21 23 28 33 37 35 36 39 37 35 35 37 41 38 34 31 28 27 21 17
3 3 6 6 15 13 16 16 17 10 6 9 14 17 24 25 17 14 23 14 5 6 15 20 22 23 25 28 32 34 31 33 36 37 42 43 37 36 34 31 28 25 23 18
3 6 5 14 19 21 23 18 18 15 16 10 20 21 22 17 13 15 27 13 5 3 9 16 23 23 25 30 31 31 33 40 43 44 42 38 34 29 29 30 26 21 19 16
3 5 3 8 9 7 16 16 18 13 14 12 13 18 7 19 17 23 20 17 4 3 10 14 20 25 26 29 31 30 38 43 44 41 37 30 28 28 29 25 23 21 19 17
3 3 4 6 8 13 4 5 7 6 6 4 6 11 16 19 12 17 21 14 7 5 11 15 20 22 26 28 32 34 37 42 43 38 33 35 32 29 28 25 21 18 17 16
6 2 2 5 8 5 6 3 8 6 10 7 10 12 14 15 15 17 25 21 4 2 9 16 18 24 26 30 35 40 41 39 38 37 35 34 31 26 24 22 19 18 16 14
10 5 3 2 2 8 8 2 1 2 6 3 8 12 17 22 9 7 25 26 12 10 6 13 16 21 26 30 32 35 37 36 33 33 33 29 26 25 23 21 18 17 14 11
8 8 1 2 1 5 6 2 2 3 3 3 6 8 11 19 4 3 23 24 13 10 11 13 20 24 28 28 28 28 35 33 31 31 27 25 24 22 19 18 17 14 10 8
2 3 9 4 5 9 12 8 3 5 5 14 13 16 12 5 5 19 18 15 11 8 8 10 13 18 21 24 26 29 32 30 27 25 23 22 21 20 17 17 14 10 8 8
7 7 4 2 3 8 6 2 4 2 8 11 16 16 16 16 16 14 15 14 10 8 7 8 9 11 13 15 18 23 28 27 24 21 20 21 22 21 18 16 13 10 9 10
3 7 4 9 7 5 2 8 10 18 22 21 20 25 18 19 15 15 15 13 10 6 5 6 7 10 12 12 13 14 19 22 21 23 24 22 20 17 18 16 13 11 9 10
5 6 3 2 6 10 17 27 30 29 29 28 28 19 15 15 13 12 11 11 7 4 2 6 6 8 11 15 17 18 20 23 24 23 23 21 19 19 16 13 12 11 11 12
6 10 5 6 15 22 13 4 8 7 8 10 9 10 11 12 10 9 9 9 7 4 5 6 6 6 9 11 15 18 21 22 22 21 21 20 17 15 13 12 12 13 14 15
12 7 6 8 15 7 6 3 6 8 7 4 6 5 6 10 8 8 9 8 6 5 4 5 6 6 7 9 14 18 20 20 20 20 19 17 15 15 15 16 15 16 15 16
Wind_Direction
338 358 230 236 224 245 267 274 277 278 282 275 269 277 282 280 274 283 270 269 269 248 240 231 223 217 212 211 206 203 201 200 205 200 197 195 195 195 201 207 209 209 209 207
348 245 269 253 266 256 266 282 287 280 262 256 275 277 278 272 263 266 273 260 256 254 249 230 223 217 215 213 208 204 203 204 205 205 203 202 197 199 205 208 209 208 209 202
237 256 324 272 285 290 276 261 276 276 285 271 284 280 282 270 253 254 255 254 248 248 244 229 218 217 215 213 209 206 203 207 208 203 204 205 202 203 205 207 205 204 205 197
252 280 301 304 270 237 280 250 269 277 299 287 177 286 280 280 266 246 245 249 236 238 235 236 216 213 214 212 210 209 205 206 208 205 207 209 207 205 207 208 202 202 200 193
263 283 284 284 251 168 254 277 275 281 275 281 276 261 290 259 265 247 240 239 229 232 229 228 220 212 213 211 211 209 204 204 205 205 209 210 213 212 214 206 199 196 196 188
255 269 256 227 285 224 263 303 288 266 252 262 261 235 269 271 257 259 253 247 237 224 224 222 231 211 209 206 206 205 201 198 203 209 211 212 215 214 213 202 196 190 187 186
311 261 273 216 301 295 87 336 307 327 307 255 11 293 240 295 269 252 260 257 241 223 217 218 213 206 208 204 202 202 197 198 202 208 212 212 216 219 220 203 196 190 182 181
329 321 272 133 213 277 296 192 235 278 288 291 292 248 258 264 324 327 310 283 247 215 213 217 209 203 209 197 203 199 198 203 204 208 212 211 215 215 213 203 194 181 173 175
323 274 286 284 283 173 312 241 224 272 258 266 252 286 308 357 347 335 327 313 213 199 209 212 213 203 208 196 199 204 200 204 205 207 209 212 216 213 203 188 172 177 165 164
289 289 260 283 297 245 206 300 316 328 296 298 276 274 281 339 346 327 313 306 240 203 204 207 213 207 208 205 199 200 203 202 205 204 205 208 207 200 185 173 162 166 161 162
247 229 284 349 257 261 333 293 297 228 218 290 312 294 1 332 339 323 310 292 282 210 205 219 214 206 204 200 200 194 193 194 199 197 199 198 187 178 170 167 162 163 161 149
217 288 280 274 291 261 217 271 261 307 302 281 269 276 209 18 355 333 313 302 223 194 200 201 206 199 192 192 189 194 192 192 191 189 187 181 176 172 167 168 157 150 166 165
316 276 316 329 355 330 332 301 292 288 254 266 295 296 316 342 336 341 326 329 299 156 166 179 190 187 180 179 180 184 184 185 179 177 175 167 164 159 161 159 157 160 163 170
220 243 207 239 269 291 288 296 286 272 272 299 271 297 315 322 329 338 344 336 355 124 149 160 174 179 176 172 170 174 175 179 169 164 162 158 157 158 159 162 163 155 169 185
199 255 226 255 270 275 275 280 280 278 266 264 288 301 301 322 336 344 339 330 358 124 152 154 165 171 172 171 164 162 167 167 161 155 155 152 152 156 165 161 165 177 181 184
176 277 307 283 270 287 298 282 276 266 265 265 276 291 308 331 336 340 1 352 316 182 156 156 163 169 169 166 158 161 167 162 152 148 147 152 168 163 161 170 175 177 183 193
234 266 349 272 320 314 13 260 289 282 249 271 302 307 318 321 333 336 353 351 333 164 145 148 160 162 162 161 154 157 160 154 150 148 153 152 150 159 164 173 177 184 193 201
235 237 249 278 340 357 252 292 244 254 280 279 284 305 299 301 310 344 352 1 31 76 136 148 152 158 159 155 153 155 159 156 155 157 157 156 167 172 176 177 179 188 199 208
220 213 277 264 226 286 295 300 259 341 296 281 300 314 318 328 326 355 347 6 21 69 120 152 148 150 159 156 154 157 160 159 157 161 164 168 171 174 178 180 183 193 203 214
189 224 220 90 209 244 242 296 145 141 287 336 291 314 329 334 44 348 340 352 20 55 89 132 144 145 144 149 156 158 167 166 165 172 171 170 172 179 183 186 189 195 207 222
182 214 229 217 257 280 256 262 190 44 277 320 323 330 341 345 329 318 336 359 12 55 82 118 146 160 164 168 172 173 175 178 176 172 172 174 177 183 186 192 194 199 212 241
174 166 208 155 213 273 227 244 193 193 292 302 317 328 332 328 331 347 354 360 13 39 85 116 133 156 178 184 180 182 186 184 178 175 176 177 187 191 191 196 199 207 228 252
280 198 183 189 221 233 224 257 269 295 289 293 289 305 311 324 327 337 350 5 9 27 59 119 136 146 162 176 189 190 188 180 179 184 186 189 193 195 201 204 210 227 251 277
239 192 219 19 263 247 272 293 291 282 277 285 283 285 292 313 324 337 344 358 12 48 91 132 136 147 163 165 175 177 182 182 187 190 191 192 197 205 205 211 229 244 262 278
211 153 191 265 284 282 282 288 11 37 327 278 269 270 284 309 324 336 352 358 19 40 105 132 127 135 153 164 171 178 185 187 190 191 196 199 206 212 218 230 245 254 262 269
185 197 178 220 237 236 263 353 340 359 11 275 281 283 290 317 321 336 353 5 28 56 91 106 124 134 138 156 174 180 184 189 197 198 200 206 216 220 227 239 247 257 267 269